Time,TemperatureF,DewpointF,PressureIn,WindDirection,WindDirectionDegrees,WindSpeedMPH,WindSpeedGustMPH,Humidity,HourlyPrecipIn,Conditions,Clouds,dailyrainin,SoftwareType,DateUTC
2013-01-13 00:03:00,41.0,-99.9,30.11,SE,141,1.0,2.0,-999,-99.99,,,-99.99,,2013-01-13 05:03:00,
2013-01-13 00:12:00,41.0,-99.9,30.11,SW,220,2.0,2.0,-999,-99.99,,,-99.99,,2013-01-13 05:12:00,
2013-01-13 00:23:00,42.0,-99.9,30.11,WSW,247,1.0,2.0,-999,-99.99,,,-99.99,,2013-01-13 05:23:00,
2013-01-13 00:33:00,42.0,-99.9,30.11,WSW,247,1.0,1.0,-999,-99.99,,,-99.99,,2013-01-13 05:33:00,
2013-01-13 00:42:00,42.0,-99.9,30.11,North,-999,-999.0,-999.0,-999,-99.99,,,-99.99,,2013-01-13 05:42:00,
2013-01-13 00:53:00,42.0,-99.9,30.12,North,-999,-999.0,-999.0,-999,-99.99,,,-99.99,,2013-01-13 05:53:00,
2013-01-13 01:03:00,42.0,-99.9,30.13,West,270,2.0,2.0,-999,-99.99,,,-99.99,,2013-01-13 06:03:00,
2013-01-13 01:12:00,42.0,-99.9,30.12,WNW,282,1.0,2.0,-999,-99.99,,,-99.99,,2013-01-13 06:12:00,
2013-01-13 01:22:00,42.0,-99.9,30.13,WNW,295,2.0,3.0,-999,-99.99,,,-99.99,,2013-01-13 06:22:00,
2013-01-13 01:33:00,42.0,-99.9,30.12,WNW,298,1.0,2.0,-999,-99.99,,,-99.99,,2013-01-13 06:33:00,
2013-01-13 01:43:00,42.0,-99.9,30.12,North,-999,-999.0,-999.0,-999,-99.99,,,-99.99,,2013-01-13 06:43:00,
2013-01-13 01:53:00,42.0,-99.9,30.12,North,-999,-999.0,-999.0,-999,-99.99,,,-99.99,,2013-01-13 06:53:00,
2013-01-13 02:02:00,42.0,-99.9,30.12,North,-999,-999.0,-999.0,-999,-99.99,,,-99.99,,2013-01-13 07:02:00,
2013-01-13 02:12:00,42.0,-99.9,30.13,North,-999,-999.0,-999.0,-999,-99.99,,,-99.99,,2013-01-13 07:12:00,
2013-01-13 02:22:00,42.0,-99.9,30.13,South,188,3.0,3.0,-999,-99.99,,,-99.99,,2013-01-13 07:22:00,
2013-01-13 02:33:00,42.0,-99.9,30.13,South,186,3.0,3.0,-999,-99.99,,,-99.99,,2013-01-13 07:33:00,
2013-01-13 02:42:00,42.0,-99.9,30.13,SW,220,3.0,3.0,-999,-99.99,,,-99.99,,2013-01-13 07:42:00,
2013-01-13 02:53:00,42.0,-99.9,30.13,South,177,3.0,4.0,-999,-99.99,,,-99.99,,2013-01-13 07:53:00,
2013-01-13 03:02:00,42.0,-99.9,30.13,South,176,3.0,3.0,-999,-99.99,,,-99.99,,2013-01-13 08:02:00,
2013-01-13 03:12:00,42.0,-99.9,30.12,SSE,166,3.0,3.0,-999,-99.99,,,-99.99,,2013-01-13 08:12:00,
2013-01-13 03:22:00,42.0,-99.9,30.12,SSE,165,4.0,4.0,-999,-99.99,,,-99.99,,2013-01-13 08:22:00,
2013-01-13 03:32:00,42.0,-99.9,30.12,South,179,5.0,5.0,-999,-99.99,,,-99.99,,2013-01-13 08:32:00,
2013-01-13 03:42:00,42.0,-99.9,30.11,South,183,5.0,5.0,-999,-99.99,,,-99.99,,2013-01-13 08:42:00,
2013-01-13 03:53:00,41.0,-99.9,30.12,SSW,192,5.0,6.0,-999,-99.99,,,-99.99,,2013-01-13 08:53:00,
2013-01-13 04:02:00,41.0,-99.9,30.11,SSW,197,5.0,6.0,-999,-99.99,,,-99.99,,2013-01-13 09:02:00,
2013-01-13 04:12:00,41.0,-99.9,30.11,SSE,168,4.0,5.0,-999,-99.99,,,-99.99,,2013-01-13 09:12:00,
2013-01-13 04:22:00,42.0,-99.9,30.10,SSE,159,3.0,4.0,-999,-99.99,,,-99.99,,2013-01-13 09:22:00,
2013-01-13 04:32:00,41.0,-99.9,30.11,SSE,167,2.0,3.0,-999,-99.99,,,-99.99,,2013-01-13 09:32:00,
2013-01-13 04:43:00,41.0,-99.9,30.10,SSE,165,4.0,5.0,-999,-99.99,,,-99.99,,2013-01-13 09:43:00,
2013-01-13 04:53:00,41.0,-99.9,30.10,SSE,151,5.0,6.0,-999,-99.99,,,-99.99,,2013-01-13 09:53:00,
2013-01-13 05:03:00,41.0,-99.9,30.11,SSE,153,4.0,5.0,-999,-99.99,,,-99.99,,2013-01-13 10:03:00,
2013-01-13 05:12:00,42.0,-99.9,30.10,South,172,4.0,5.0,-999,-99.99,,,-99.99,,2013-01-13 10:12:00,
2013-01-13 05:22:00,42.0,-99.9,30.09,SSE,156,4.0,4.0,-999,-99.99,,,-99.99,,2013-01-13 10:22:00,
2013-01-13 05:33:00,41.0,-99.9,30.09,SE,135,6.0,6.0,-999,-99.99,,,-99.99,,2013-01-13 10:33:00,
2013-01-13 05:42:00,42.0,-99.9,30.07,ESE,115,9.0,9.0,-999,-99.99,,,-99.99,,2013-01-13 10:42:00,
2013-01-13 05:53:00,42.0,-99.9,30.07,SE,127,10.0,10.0,-999,-99.99,,,-99.99,,2013-01-13 10:53:00,
2013-01-13 06:02:00,42.0,-99.9,30.08,SE,134,10.0,11.0,-999,-99.99,,,-99.99,,2013-01-13 11:02:00,
2013-01-13 06:12:00,42.0,-99.9,30.09,SE,146,6.0,7.0,-999,-99.99,,,-99.99,,2013-01-13 11:12:00,
2013-01-13 06:22:00,42.0,-99.9,30.09,SSE,168,8.0,8.0,-999,-99.99,,,-99.99,,2013-01-13 11:22:00,
2013-01-13 06:33:00,42.0,-99.9,30.10,South,169,8.0,9.0,-999,-99.99,,,-99.99,,2013-01-13 11:33:00,
2013-01-13 06:43:00,41.0,-99.9,30.10,South,179,9.0,10.0,-999,-99.99,,,-99.99,,2013-01-13 11:43:00,
2013-01-13 06:53:00,41.0,-99.9,30.10,South,185,9.0,10.0,-999,-99.99,,,-99.99,,2013-01-13 11:53:00,
2013-01-13 07:03:00,41.0,-99.9,30.10,South,186,9.0,10.0,-999,-99.99,,,-99.99,,2013-01-13 12:03:00,
2013-01-13 07:12:00,42.0,-99.9,30.11,South,189,7.0,9.0,-999,-99.99,,,-99.99,,2013-01-13 12:12:00,
2013-01-13 07:22:00,42.0,-99.9,30.11,SSW,199,8.0,9.0,-999,-99.99,,,-99.99,,2013-01-13 12:22:00,
2013-01-13 07:33:00,42.0,-99.9,30.12,SSW,198,8.0,9.0,-999,-99.99,,,-99.99,,2013-01-13 12:33:00,
2013-01-13 07:42:00,42.0,-99.9,30.11,SSW,196,8.0,9.0,-999,-99.99,,,-99.99,,2013-01-13 12:42:00,
2013-01-13 07:53:00,42.0,-99.9,30.12,South,187,8.0,8.0,-999,-99.99,,,-99.99,,2013-01-13 12:53:00,
2013-01-13 08:03:00,42.0,-99.9,30.12,South,186,8.0,8.0,-999,-99.99,,,-99.99,,2013-01-13 13:03:00,
2013-01-13 08:12:00,42.0,-99.9,30.12,South,176,7.0,7.0,-999,-99.99,,,-99.99,,2013-01-13 13:12:00,
2013-01-13 08:22:00,42.0,-99.9,30.13,South,190,8.0,8.0,-999,-99.99,,,-99.99,,2013-01-13 13:22:00,
2013-01-13 08:33:00,42.0,-99.9,30.13,SSW,193,8.0,8.0,-999,-99.99,,,-99.99,,2013-01-13 13:33:00,
2013-01-13 08:43:00,42.0,-99.9,30.14,South,191,8.0,9.0,-999,-99.99,,,-99.99,,2013-01-13 13:43:00,
2013-01-13 08:53:00,41.0,-99.9,30.14,South,187,9.0,9.0,-999,-99.99,,,-99.99,,2013-01-13 13:53:00,
2013-01-13 09:03:00,41.0,-99.9,30.14,South,184,9.0,9.0,-999,-99.99,,,-99.99,,2013-01-13 14:03:00,
2013-01-13 09:13:00,42.0,-99.9,30.13,South,180,8.0,9.0,-999,-99.99,,,-99.99,,2013-01-13 14:13:00,
2013-01-13 09:23:00,42.0,-99.9,30.14,South,179,6.0,7.0,-999,-99.99,,,-99.99,,2013-01-13 14:23:00,
2013-01-13 09:33:00,42.0,-99.9,30.14,South,180,6.0,6.0,-999,-99.99,,,-99.99,,2013-01-13 14:33:00,
2013-01-13 09:43:00,42.0,-99.9,30.13,South,173,6.0,6.0,-999,-99.99,,,-99.99,,2013-01-13 14:43:00,
2013-01-13 09:53:00,42.0,-99.9,30.13,SSE,149,7.0,7.0,-999,-99.99,,,-99.99,,2013-01-13 14:53:00,
2013-01-13 10:03:00,42.0,-99.9,30.13,SSE,157,6.0,7.0,-999,-99.99,,,-99.99,,2013-01-13 15:03:00,
2013-01-13 10:13:00,42.0,-99.9,30.13,South,170,8.0,8.0,-999,-99.99,,,-99.99,,2013-01-13 15:13:00,
2013-01-13 10:23:00,42.0,-99.9,30.14,South,175,8.0,9.0,-999,-99.99,,,-99.99,,2013-01-13 15:23:00,
2013-01-13 10:33:00,43.0,-99.9,30.14,South,180,8.0,9.0,-999,-99.99,,,-99.99,,2013-01-13 15:33:00,
2013-01-13 10:43:00,43.0,-99.9,30.14,South,175,8.0,10.0,-999,-99.99,,,-99.99,,2013-01-13 15:43:00,
2013-01-13 10:53:00,43.0,-99.9,30.13,South,169,9.0,10.0,-999,-99.99,,,-99.99,,2013-01-13 15:53:00,
2013-01-13 11:04:00,43.0,-99.9,30.13,South,169,9.0,9.0,-999,-99.99,,,-99.99,,2013-01-13 16:04:00,
2013-01-13 11:13:00,43.0,-99.9,30.13,South,171,8.0,9.0,-999,-99.99,,,-99.99,,2013-01-13 16:13:00,
2013-01-13 11:23:00,44.0,-99.9,30.12,SSE,154,6.0,8.0,-999,-99.99,,,-99.99,,2013-01-13 16:23:00,
2013-01-13 11:33:00,44.0,-99.9,30.12,SSE,153,6.0,7.0,-999,-99.99,,,-99.99,,2013-01-13 16:33:00,
2013-01-13 11:43:00,43.0,-99.9,30.12,SSE,148,6.0,8.0,-999,-99.99,,,-99.99,,2013-01-13 16:43:00,
2013-01-13 11:53:00,43.0,-99.9,30.11,SSE,151,6.0,7.0,-999,-99.99,,,-99.99,,2013-01-13 16:53:00,
2013-01-13 12:03:00,43.0,-99.9,30.11,SSE,162,7.0,8.0,-999,-99.99,,,-99.99,,2013-01-13 17:03:00,
2013-01-13 12:13:00,43.0,-99.9,30.10,SSE,154,8.0,8.0,-999,-99.99,,,-99.99,,2013-01-13 17:13:00,
2013-01-13 12:22:00,43.0,-99.9,30.10,SSE,154,8.0,9.0,-999,-99.99,,,-99.99,,2013-01-13 17:22:00,
2013-01-13 12:33:00,43.0,-99.9,30.10,SSE,155,8.0,9.0,-999,-99.99,,,-99.99,,2013-01-13 17:33:00,
2013-01-13 12:43:00,44.0,-99.9,30.09,SSE,160,5.0,7.0,-999,-99.99,,,-99.99,,2013-01-13 17:43:00,
2013-01-13 12:53:00,44.0,-99.9,30.09,South,173,6.0,7.0,-999,-99.99,,,-99.99,,2013-01-13 17:53:00,
2013-01-13 13:03:00,44.0,-99.9,30.09,South,184,6.0,7.0,-999,-99.99,,,-99.99,,2013-01-13 18:03:00,
2013-01-13 13:12:00,44.0,-99.9,30.09,South,190,7.0,7.0,-999,-99.99,,,-99.99,,2013-01-13 18:12:00,
2013-01-13 13:23:00,44.0,-99.9,30.08,South,182,10.0,11.0,-999,-99.99,,,-99.99,,2013-01-13 18:23:00,
2013-01-13 13:33:00,44.0,-99.9,30.08,South,173,11.0,11.0,-999,-99.99,,,-99.99,,2013-01-13 18:33:00,
2013-01-13 13:43:00,44.0,-99.9,30.07,South,175,14.0,14.0,-999,-99.99,,,-99.99,,2013-01-13 18:43:00,
2013-01-13 13:53:00,44.0,-99.9,30.07,SSE,168,11.0,12.0,-999,-99.99,,,-99.99,,2013-01-13 18:53:00,
2013-01-13 14:03:00,45.0,-99.9,30.06,South,169,11.0,12.0,-999,-99.99,,,-99.99,,2013-01-13 19:03:00,
2013-01-13 14:12:00,45.0,-99.9,30.07,SSE,167,12.0,13.0,-999,-99.99,,,-99.99,,2013-01-13 19:12:00,
2013-01-13 14:23:00,45.0,-99.9,30.06,South,174,8.0,10.0,-999,-99.99,,,-99.99,,2013-01-13 19:23:00,
2013-01-13 14:33:00,45.0,-99.9,30.07,South,177,9.0,10.0,-999,-99.99,,,-99.99,,2013-01-13 19:33:00,
2013-01-13 14:43:00,45.0,-99.9,30.07,South,180,11.0,12.0,-999,-99.99,,,-99.99,,2013-01-13 19:43:00,
2013-01-13 14:53:00,44.0,-99.9,30.06,SSE,168,14.0,16.0,-999,-99.99,,,-99.99,,2013-01-13 19:53:00,
2013-01-13 15:03:00,44.0,-99.9,30.06,SSE,163,12.0,15.0,-999,-99.99,,,-99.99,,2013-01-13 20:03:00,
2013-01-13 15:12:00,45.0,-99.9,30.06,SSE,167,14.0,15.0,-999,-99.99,,,-99.99,,2013-01-13 20:12:00,
2013-01-13 15:23:00,44.0,-99.9,30.06,SSE,162,12.0,15.0,-999,-99.99,,,-99.99,,2013-01-13 20:23:00,
2013-01-13 15:33:00,45.0,-99.9,30.06,SSE,166,13.0,15.0,-999,-99.99,,,-99.99,,2013-01-13 20:33:00,
2013-01-13 15:43:00,46.0,-99.9,30.04,SSE,165,21.0,22.0,-999,-99.99,,,-99.99,,2013-01-13 20:43:00,
2013-01-13 15:53:00,45.0,-99.9,30.05,South,171,19.0,20.0,-999,-99.99,,,-99.99,,2013-01-13 20:53:00,
2013-01-13 16:03:00,45.0,-99.9,30.05,South,174,19.0,20.0,-999,-99.99,,,-99.99,,2013-01-13 21:03:00,
2013-01-13 16:13:00,45.0,-99.9,30.05,SSE,168,18.0,19.0,-999,-99.99,,,-99.99,,2013-01-13 21:13:00,
2013-01-13 16:23:00,45.0,-99.9,30.04,SSE,155,15.0,19.0,-999,-99.99,,,-99.99,,2013-01-13 21:23:00,
2013-01-13 16:33:00,45.0,-99.9,30.05,SSE,167,13.0,16.0,-999,-99.99,,,-99.99,,2013-01-13 21:33:00,
2013-01-13 16:43:00,44.0,-99.9,30.05,South,172,11.0,14.0,-999,-99.99,,,-99.99,,2013-01-13 21:43:00,
2013-01-13 16:53:00,45.0,-99.9,30.04,SSE,157,19.0,20.0,-999,-99.99,,,-99.99,,2013-01-13 21:53:00,
2013-01-13 17:03:00,44.0,-99.9,30.05,SSE,162,14.0,20.0,-999,-99.99,,,-99.99,,2013-01-13 22:03:00,
2013-01-13 17:13:00,45.0,-99.9,30.04,SSE,154,13.0,15.0,-999,-99.99,,,-99.99,,2013-01-13 22:13:00,
2013-01-13 17:23:00,44.0,-99.9,30.04,SSE,153,13.0,16.0,-999,-99.99,,,-99.99,,2013-01-13 22:23:00,
2013-01-13 17:33:00,44.0,-99.9,30.04,SSE,159,12.0,14.0,-999,-99.99,,,-99.99,,2013-01-13 22:33:00,
2013-01-13 17:43:00,44.0,-99.9,30.04,SSE,168,14.0,16.0,-999,-99.99,,,-99.99,,2013-01-13 22:43:00,
2013-01-13 17:53:00,44.0,-99.9,30.04,SSE,162,12.0,14.0,-999,-99.99,,,-99.99,,2013-01-13 22:53:00,
2013-01-13 18:03:00,44.0,-99.9,30.04,South,171,13.0,15.0,-999,-99.99,,,-99.99,,2013-01-13 23:03:00,
2013-01-13 18:12:00,44.0,-99.9,30.04,South,180,7.0,9.0,-999,-99.99,,,-99.99,,2013-01-13 23:12:00,
2013-01-13 18:23:00,44.0,-99.9,30.04,South,180,9.0,11.0,-999,-99.99,,,-99.99,,2013-01-13 23:23:00,
2013-01-13 18:33:00,43.0,-99.9,30.04,South,172,8.0,10.0,-999,-99.99,,,-99.99,,2013-01-13 23:33:00,
2013-01-13 18:43:00,44.0,-99.9,30.03,South,171,14.0,15.0,-999,-99.99,,,-99.99,,2013-01-13 23:43:00,
2013-01-13 18:53:00,44.0,-99.9,30.04,South,186,9.0,12.0,-999,-99.99,,,-99.99,,2013-01-13 23:53:00,
2013-01-13 19:03:00,44.0,-99.9,30.03,South,184,9.0,10.0,-999,-99.99,,,-99.99,,2013-01-14 00:03:00,
2013-01-13 19:13:00,44.0,-99.9,30.02,SSE,158,12.0,13.0,-999,-99.99,,,-99.99,,2013-01-14 00:13:00,
2013-01-13 19:23:00,44.0,-99.9,30.02,SSE,161,15.0,16.0,-999,-99.99,,,-99.99,,2013-01-14 00:23:00,
2013-01-13 19:33:00,44.0,-99.9,30.02,SSE,161,15.0,16.0,-999,-99.99,,,-99.99,,2013-01-14 00:33:00,
2013-01-13 19:43:00,44.0,-99.9,30.02,SSE,161,15.0,16.0,-999,-99.99,,,-99.99,,2013-01-14 00:43:00,
2013-01-13 19:53:00,44.0,-99.9,30.02,SSE,161,15.0,16.0,-999,-99.99,,,-99.99,,2013-01-14 00:53:00,